• In Hungary
  • List of Countries
  • For 7 days
  • Water Temperature
  • Satellite Maps
  • Weather Map
  • News
  • Weather Widgets
  • user-avatar
    Login

    Hourly Weather Novonikolaevskoe

    Today, 25 September, Tuesday

    Time Temperature Precipitation Wind Pressure Humidity
    00:00 +14°C° 0 mm 2 mps 742 mmHg 69%
    01:00 +14°C° 0 mm 2 mps 742 mmHg 70%
    02:00 +14°C° 0 mm 2 mps 742 mmHg 70%
    03:00 +13°C° 0 mm 2 mps 742 mmHg 70%
    04:00 +12°C° 0 mm 3 mps 742 mmHg 70%
    05:00 +12°C° 0 mm 3 mps 742 mmHg 69%
    06:00 +12°C° 0 mm 3 mps 742 mmHg 68%
    07:00 +12°C° 0 mm 3 mps 743 mmHg 67%
    08:00 +15°C° 0 mm 4 mps 743 mmHg 59%
    09:00 +17°C° 0 mm 5 mps 743 mmHg 51%
    10:00 +20°C° 0 mm 6 mps 743 mmHg 44%
    11:00 +21°C° 0 mm 6 mps 743 mmHg 42%
    12:00 +22°C° 0 mm 7 mps 743 mmHg 40%
    13:00 +23°C° 0 mm 7 mps 742 mmHg 39%
    14:00 +23°C° 0 mm 6 mps 742 mmHg 41%
    15:00 +23°C° 0 mm 6 mps 742 mmHg 43%
    16:00 +22°C° 0 mm 5 mps 742 mmHg 45%
    17:00 +21°C° 0 mm 4 mps 742 mmHg 49%
    18:00 +19°C° 0 mm 4 mps 742 mmHg 53%
    19:00 +17°C° 0 mm 3 mps 742 mmHg 57%
    20:00 +17°C° 0 mm 3 mps 742 mmHg 59%
    21:00 +16°C° 0 mm 3 mps 743 mmHg 61%
    22:00 +14°C° 0 mm 3 mps 743 mmHg 63%
    23:00 +14°C° 0 mm 3 mps 743 mmHg 67%

    Tomorrow, 26 September, Wednesday

    Time Temperature Precipitation Wind Pressure Humidity
    00:00 +13°C° 0 mm 3 mps 743 mmHg 71%
    01:00 +13°C° 0 mm 3 mps 743 mmHg 75%
    02:00 +12°C° 0 mm 3 mps 743 mmHg 78%
    03:00 +12°C° 0 mm 3 mps 743 mmHg 80%
    04:00 +12°C° 0 mm 3 mps 744 mmHg 83%
    05:00 +12°C° 0 mm 3 mps 744 mmHg 81%
    06:00 +12°C° 0 mm 3 mps 744 mmHg 79%
    07:00 +12°C° 0 mm 3 mps 744 mmHg 78%
    08:00 +14°C° 0 mm 3 mps 744 mmHg 71%
    09:00 +15°C° 0 mm 4 mps 744 mmHg 64%
    10:00 +17°C° 0 mm 5 mps 744 mmHg 57%
    11:00 +18°C° 0 mm 4 mps 744 mmHg 57%
    12:00 +19°C° 0 mm 4 mps 744 mmHg 56%
    13:00 +19°C° 0 mm 4 mps 744 mmHg 56%
    14:00 +19°C° 0.1 mm 4 mps 744 mmHg 57%
    15:00 +19°C° 0.1 mm 4 mps 744 mmHg 58%
    16:00 +19°C° 0.1 mm 3 mps 744 mmHg 59%
    17:00 +18°C° 0 mm 3 mps 744 mmHg 63%
    18:00 +17°C° 0 mm 3 mps 744 mmHg 66%
    19:00 +16°C° 0 mm 2 mps 744 mmHg 70%
    20:00 +16°C° 0 mm 2 mps 744 mmHg 68%
    21:00 +16°C° 0 mm 2 mps 744 mmHg 66%
    22:00 +16°C° 0 mm 2 mps 744 mmHg 64%
    23:00 +16°C° 0 mm 3 mps 744 mmHg 64%

    Day after tomorrow, 27 September, Thursday

    Time Temperature Precipitation Wind Pressure Humidity
    00:00 +16°C° 0 mm 3 mps 744 mmHg 64%
    01:00 +16°C° 0 mm 3 mps 744 mmHg 64%
    02:00 +14°C° 0 mm 3 mps 744 mmHg 65%
    03:00 +14°C° 0 mm 3 mps 744 mmHg 66%
    04:00 +14°C° 0 mm 3 mps 744 mmHg 68%
    05:00 +13°C° 0.3 mm 3 mps 744 mmHg 73%
    06:00 +13°C° 0.3 mm 2 mps 744 mmHg 78%
    07:00 +12°C° 0.3 mm 2 mps 744 mmHg 83%
    08:00 +12°C° 0.5 mm 2 mps 744 mmHg 84%
    09:00 +12°C° 0.5 mm 2 mps 743 mmHg 84%
    10:00 +12°C° 0.5 mm 2 mps 743 mmHg 85%
    11:00 +12°C° 1 mm 2 mps 743 mmHg 84%
    12:00 +12°C° 1 mm 2 mps 743 mmHg 84%
    13:00 +12°C° 1 mm 2 mps 743 mmHg 83%
    14:00 +10°C° 0.6 mm 2 mps 743 mmHg 84%
    15:00 +10°C° 0.6 mm 2 mps 743 mmHg 85%
    16:00 +10°C° 0.6 mm 2 mps 743 mmHg 86%
    17:00 +9°C° 0.1 mm 2 mps 743 mmHg 87%
    18:00 +8°C° 0.1 mm 2 mps 743 mmHg 89%
    19:00 +8°C° 0.1 mm 3 mps 743 mmHg 90%
    20:00 +7°C° 0 mm 3 mps 743 mmHg 90%
    21:00 +7°C° 0 mm 3 mps 743 mmHg 89%
    22:00 +7°C° 0 mm 3 mps 742 mmHg 88%
    23:00 +7°C° 0 mm 3 mps 742 mmHg 86%

    28 September, Friday

    Time Temperature Precipitation Wind Pressure Humidity
    00:00 +7°C° 0 mm 3 mps 741 mmHg 84%
    01:00 +7°C° 0 mm 3 mps 741 mmHg 82%
    02:00 +6°C° 0 mm 4 mps 740 mmHg 82%
    03:00 +6°C° 0 mm 4 mps 740 mmHg 82%
    04:00 +6°C° 0 mm 5 mps 740 mmHg 82%
    05:00 +6°C° 0.2 mm 5 mps 739 mmHg 81%
    06:00 +6°C° 0.2 mm 5 mps 739 mmHg 80%
    07:00 +6°C° 0.2 mm 5 mps 739 mmHg 80%
    08:00 +7°C° 0.1 mm 6 mps 739 mmHg 78%
    09:00 +7°C° 0.1 mm 6 mps 739 mmHg 76%
    10:00 +7°C° 0.1 mm 6 mps 739 mmHg 75%
    11:00 +8°C° 0.1 mm 6 mps 739 mmHg 73%
    12:00 +8°C° 0.1 mm 6 mps 739 mmHg 70%
    13:00 +9°C° 0.1 mm 6 mps 740 mmHg 68%
    14:00 +9°C° 0.1 mm 6 mps 740 mmHg 66%
    15:00 +9°C° 0.1 mm 6 mps 740 mmHg 64%
    16:00 +10°C° 0.1 mm 6 mps 741 mmHg 62%
    17:00 +8°C° 0 mm 4 mps 741 mmHg 67%
    18:00 +8°C° 0 mm 3 mps 741 mmHg 71%
    19:00 +7°C° 0 mm 2 mps 741 mmHg 75%
    20:00 +7°C° 0 mm 3 mps 741 mmHg 76%
    21:00 +7°C° 0 mm 3 mps 741 mmHg 76%
    22:00 +5°C° 0 mm 3 mps 741 mmHg 76%
    23:00 +7°C° 0 mm 3 mps 741 mmHg 75%

    29 September, Saturday

    Time Temperature Precipitation Wind Pressure Humidity
    00:00 +6°C° 0 mm 4 mps 741 mmHg 75%
    01:00 +6°C° 0 mm 4 mps 740 mmHg 75%
    02:00 +6°C° 0 mm 5 mps 740 mmHg 75%
    03:00 +6°C° 0 mm 5 mps 740 mmHg 76%
    04:00 +6°C° 0 mm 5 mps 740 mmHg 76%
    05:00 +7°C° 0 mm 6 mps 739 mmHg 76%
    06:00 +6°C° 0 mm 7 mps 739 mmHg 77%
    07:00 +8°C° 0 mm 7 mps 739 mmHg 77%
    08:00 +9°C° 0.1 mm 8 mps 739 mmHg 75%
    09:00 +10°C° 0.1 mm 8 mps 739 mmHg 74%
    10:00 +11°C° 0.1 mm 8 mps 740 mmHg 72%
    11:00 +11°C° 0.2 mm 7 mps 740 mmHg 72%
    12:00 +11°C° 0.2 mm 6 mps 741 mmHg 72%
    13:00 +12°C° 0.2 mm 5 mps 742 mmHg 72%
    14:00 +13°C° 0 mm 5 mps 742 mmHg 66%
    15:00 +13°C° 0 mm 4 mps 743 mmHg 60%
    16:00 +13°C° 0 mm 4 mps 743 mmHg 53%
    17:00 +11°C° 0 mm 3 mps 744 mmHg 59%
    18:00 +9°C° 0 mm 2 mps 744 mmHg 65%
    19:00 +8°C° 0 mm 1 mps 744 mmHg 71%
    20:00 +8°C° 0 mm 1 mps 745 mmHg 73%
    21:00 +7°C° 0 mm 1 mps 745 mmHg 75%
    22:00 +6°C° 0 mm 1 mps 745 mmHg 77%
    23:00 +6°C° 0 mm 1 mps 745 mmHg 77%

    30 September, Sunday

    Time Temperature Precipitation Wind Pressure Humidity
    00:00 +6°C° 0 mm 1 mps 745 mmHg 78%
    01:00 +6°C° 0 mm 1 mps 745 mmHg 79%
    02:00 +6°C° 0.1 mm 1 mps 746 mmHg 77%
    03:00 +7°C° 0.1 mm 1 mps 746 mmHg 75%
    04:00 +7°C° 0.1 mm 1 mps 746 mmHg 73%
    05:00 +7°C° 0.3 mm 1 mps 746 mmHg 76%
    06:00 +7°C° 0.3 mm 1 mps 745 mmHg 79%
    07:00 +7°C° 0.3 mm 1 mps 745 mmHg 82%
    08:00 +7°C° 0.4 mm 2 mps 745 mmHg 83%
    09:00 +7°C° 0.4 mm 2 mps 745 mmHg 84%
    10:00 +8°C° 0.4 mm 2 mps 745 mmHg 85%
    11:00 +9°C° 0.1 mm 2 mps 745 mmHg 83%
    12:00 +9°C° 0.1 mm 2 mps 745 mmHg 82%
    13:00 +10°C° 0.1 mm 2 mps 745 mmHg 80%
    14:00 +9°C° 0 mm 2 mps 745 mmHg 81%
    15:00 +9°C° 0 mm 3 mps 745 mmHg 83%
    16:00 +8°C° 0 mm 3 mps 745 mmHg 84%
    17:00 +8°C° 0.1 mm 3 mps 745 mmHg 85%
    18:00 +7°C° 0.1 mm 3 mps 746 mmHg 87%
    19:00 +5°C° 0.1 mm 3 mps 746 mmHg 88%
    20:00 +5°C° 0 mm 3 mps 746 mmHg 88%
    21:00 +4°C° 0 mm 3 mps 747 mmHg 89%
    22:00 +4°C° 0 mm 3 mps 747 mmHg 90%
    23:00 +3°C° 0 mm 3 mps 747 mmHg 90%
    Show more